Date,TemperatureHighF,TemperatureAvgF,TemperatureLowF,DewpointHighF,DewpointAvgF,DewpointLowF,HumidityHigh,HumidityAvg,HumidityLow,PressureMaxIn,PressureMinIn,WindSpeedMaxMPH,WindSpeedAvgMPH,GustSpeedMaxMPH,PrecipitationSumIn
2013-10-1,81.1,59.1,40.8,48.4,42.9,35.7,93,62,20,30.01,29.90,6,1,11,0.00
2013-10-2,81.6,61.0,43.2,47.0,37.9,18.4,85,50,10,30.02,29.89,9,2,14,0.00
2013-10-3,72.3,60.4,38.3,38.4,28.2,20.0,82,36,15,30.09,29.99,19,6,28,0.00
2013-10-4,80.1,69.8,62.0,23.4,20.2,14.2,21,16,10,30.12,30.05,15,7,23,0.00
2013-10-5,84.3,61.6,39.8,28.1,21.5,14.5,51,26,8,30.22,30.10,5,1,8,0.00
2013-10-6,84.5,57.6,34.0,32.6,27.3,20.8,71,39,10,30.18,30.00,4,0,8,0.00
2013-10-7,84.3,59.3,36.0,34.3,27.2,15.7,70,38,8,30.03,29.84,4,1,8,0.00
2013-10-8,79.6,57.8,37.5,39.2,32.7,26.8,74,45,15,29.92,29.71,6,1,8,0.00
2013-10-9,48.0,47.9,47.6,36.4,36.4,36.3,65,64,64,29.70,29.69,3,3,3,0.00
2013-10-10,75.6,71.9,66.1,33.3,31.9,30.5,28,23,20,29.89,29.87,5,2,9,0.00
2013-10-11,74.9,54.5,35.8,41.4,36.6,32.0,86,56,24,30.09,29.95,6,1,9,0.00
2013-10-12,76.1,55.9,36.5,43.4,36.9,31.8,84,54,21,30.02,29.84,9,2,12,0.00
2013-10-13,75.1,57.3,41.6,40.2,31.5,25.2,78,44,16,30.08,29.93,11,3,15,0.00
2013-10-14,79.6,54.2,35.2,36.0,26.1,15.7,73,41,10,30.15,30.00,7,2,10,0.00
2013-10-15,80.1,55.6,34.4,29.8,22.5,16.4,68,35,10,30.08,29.97,11,2,14,0.00
2013-10-16,81.6,55.8,34.1,30.8,25.2,20.8,64,36,11,30.12,30.01,4,0,6,0.00
2013-10-17,84.0,56.0,34.0,34.8,28.3,24.8,72,42,12,30.13,29.94,4,0,7,0.00
2013-10-18,85.3,56.5,34.6,35.8,30.7,27.2,76,45,13,30.08,29.96,3,0,5,0.00
2013-10-19,84.7,56.3,34.3,38.6,31.5,26.0,81,47,12,30.12,29.98,3,0,6,0.00
2013-10-20,86.7,57.2,34.4,37.2,32.1,27.5,79,47,12,30.05,29.87,3,0,6,0.00
2013-10-21,84.7,58.7,37.2,42.6,35.5,30.9,80,49,16,30.01,29.87,2,0,8,0.00
2013-10-22,85.1,58.0,36.9,40.1,34.8,25.9,84,50,12,30.04,29.89,2,0,5,0.00
2013-10-23,87.2,56.3,34.7,36.5,30.9,23.4,79,47,10,29.98,29.84,5,0,8,0.00
2013-10-24,78.1,53.7,33.8,39.9,33.5,28.0,79,52,21,30.08,29.94,5,0,8,0.00
2013-10-25,79.8,54.2,34.6,40.4,34.9,30.0,84,55,18,30.19,30.06,3,0,7,0.00
2013-10-26,83.4,55.2,34.4,39.3,33.1,27.8,84,51,14,30.19,30.00,3,0,6,0.00
2013-10-27,70.9,52.3,33.8,43.8,34.4,25.8,81,54,27,30.04,29.58,9,2,17,0.00
2013-10-28,65.2,49.9,33.7,41.1,34.9,28.9,84,59,28,29.84,29.64,5,0,8,0.00
2013-10-29,62.1,46.5,33.2,43.4,36.8,30.0,89,71,46,30.07,29.84,4,0,9,0.00
2013-10-30,67.3,48.1,32.1,42.9,36.6,29.0,89,68,36,30.18,30.07,3,0,5,0.00
2013-10-31,76.0,50.8,32.1,43.5,35.8,29.0,89,62,26,30.22,30.06,3,0,5,0.00